Wind_Speed
12 12 11 10 10 9 8 9 8 7 7 7 7 6 5 4 4 3 2 2 1 1 2 2 3 4 4 5 5 5 5 5 5 5 4 4 4 4 4 4 4 4 5
12 12 11 10 10 9 8 8 8 8 7 7 7 6 5 5 4 3 3 3 2 2 2 3 3 4 4 4 5 5 5 5 5 5 5 5 4 4 4 4 4 4 5
13 13 11 10 10 9 9 8 8 8 8 7 7 6 5 5 5 4 4 3 3 3 3 3 3 4 4 4 4 5 5 5 5 4 5 5 4 4 4 4 4 5 6
13 12 11 10 10 9 9 9 8 8 8 8 7 7 6 6 5 5 4 4 3 3 3 3 3 4 4 5 4 5 4 4 5 4 4 5 5 5 5 4 5 5 6
13 12 11 11 10 9 9 10 9 8 8 8 8 8 7 7 6 6 5 4 4 4 3 3 4 4 4 5 4 4 4 4 5 5 5 5 5 5 5 5 6 7 7
13 12 12 11 10 10 10 9 9 9 9 9 9 8 8 7 7 6 6 5 4 4 4 4 4 4 5 5 5 5 5 4 4 5 5 5 5 6 6 7 7 8 8
13 13 13 13 12 11 10 9 9 9 9 9 9 9 9 8 8 7 6 6 5 5 5 5 5 5 5 5 5 5 5 5 5 6 6 6 6 7 7 8 8 9 9
14 14 14 13 12 12 10 10 10 9 9 9 10 10 9 9 8 7 7 6 6 6 6 6 6 6 6 6 5 6 6 6 6 6 6 6 7 8 9 9 9 10 11
15 15 15 14 13 12 11 11 11 10 10 10 10 10 10 9 9 8 8 8 7 7 7 7 7 7 7 7 7 6 7 6 6 7 7 8 9 9 10 10 11 12 12
15 15 15 15 14 13 13 12 11 11 11 11 11 10 10 9 9 9 9 9 8 8 8 8 8 8 8 8 8 8 8 8 8 9 9 10 11 11 12 12 13 13 14
15 15 15 15 14 13 13 13 12 12 12 12 12 11 11 11 10 10 9 10 10 10 10 10 10 10 9 9 9 9 9 10 10 11 11 12 12 13 13 14 15 15 16
14 14 14 14 14 14 14 13 13 13 13 13 13 12 12 12 12 11 11 11 11 11 11 11 11 11 10 10 10 10 10 11 12 13 13 14 14 15 15 16 16 17 18
13 14 14 14 14 14 14 14 14 14 14 14 13 13 13 13 13 12 12 13 13 13 13 13 12 12 11 11 11 11 12 13 14 14 15 15 16 16 17 18 18 19 20
13 13 14 14 14 15 15 15 15 14 14 14 14 14 14 14 14 14 14 14 14 14 13 13 13 13 13 12 13 13 13 14 15 15 16 16 17 18 19 20 21 21 22
13 13 14 14 14 14 15 15 15 14 14 14 14 14 15 15 15 14 14 14 14 14 14 14 14 14 14 14 14 14 14 15 16 16 17 18 19 20 21 22 23 23 24
13 14 14 14 14 14 14 15 15 15 15 15 15 14 15 15 15 15 15 14 15 15 15 14 14 14 14 14 14 15 16 16 17 18 19 20 21 22 23 24 25 26 27
13 13 13 14 14 14 15 15 15 15 15 15 15 15 14 14 15 15 15 15 14 14 14 14 15 15 15 15 15 16 17 18 19 20 21 22 23 24 25 26 27 28 29
13 13 13 14 14 14 14 15 15 15 15 15 15 15 14 14 15 15 14 14 14 15 15 14 14 15 16 17 17 18 19 19 21 22 23 24 25 26 27 28 29 30 31
14 14 14 14 14 14 14 14 15 15 15 15 15 15 15 15 15 15 15 15 15 14 15 15 15 16 17 18 19 20 20 22 23 25 26 27 28 29 30 31 31 32 34
15 15 15 15 15 15 15 15 15 15 15 16 16 17 16 16 16 16 16 16 15 15 15 16 17 18 19 20 21 21 23 24 26 27 28 30 31 31 33 33 34 35 36
15 16 16 16 16 16 16 17 17 17 17 16 17 17 18 17 17 17 17 16 16 16 17 18 19 20 21 21 22 24 25 27 28 30 31 32 33 34 35 35 36 37 38
15 16 16 16 17 17 17 17 17 17 17 17 17 17 18 18 17 17 17 17 18 18 19 20 21 21 22 23 25 26 28 29 31 32 33 34 35 36 36 37 37 38 40
16 15 16 16 16 17 17 18 18 18 18 18 17 17 17 17 18 18 18 19 19 20 21 22 23 23 24 26 27 29 30 31 33 34 35 36 36 37 37 38 40 41 42
16 16 16 16 17 18 18 18 19 19 19 19 19 18 19 19 19 20 20 21 22 22 23 24 24 25 27 28 30 31 32 33 34 36 36 37 37 38 39 40 42 43 44
17 17 17 17 18 19 19 18 18 18 19 20 20 21 20 20 21 22 22 23 23 24 25 25 26 28 29 30 31 33 34 35 36 37 38 38 39 40 41 43 45 46 47
18 18 18 18 18 18 19 19 19 19 19 19 20 21 21 21 21 22 23 24 25 26 26 27 28 29 30 31 33 35 36 37 38 39 39 40 41 43 44 46 47 48 49
Wind_Direction
199 200 201 201 199 203 207 208 210 214 213 215 218 221 228 233 232 235 243 257 273 295 321 338 349 355 357 1 2 360 358 358 357 354 348 342 336 322 312 303 293 286 284
200 204 201 199 203 205 209 207 208 211 215 215 219 223 228 229 232 233 240 254 265 282 306 327 340 348 350 353 359 0 1 2 359 354 348 342 333 325 318 310 299 294 293
207 207 204 206 208 208 210 210 211 213 219 220 223 225 227 227 226 227 234 246 255 278 300 318 331 338 339 341 344 351 353 355 354 350 348 342 333 324 320 315 308 303 299
207 206 208 208 209 211 216 220 216 218 221 223 225 226 227 225 224 230 237 243 251 276 297 310 321 329 332 333 335 343 345 345 347 342 339 336 333 326 320 313 307 304 303
206 207 208 211 214 217 221 226 226 224 225 226 228 229 226 223 224 233 241 245 251 268 287 300 311 320 327 330 332 337 341 340 342 342 337 334 330 327 321 314 309 306 304
209 210 213 216 218 222 225 229 233 228 229 230 231 233 230 228 228 237 243 244 249 264 279 293 303 309 317 322 327 330 336 337 334 334 328 323 324 322 321 316 313 311 308
211 215 220 220 222 224 228 231 233 231 232 232 232 233 233 233 234 238 243 245 253 263 273 285 295 300 306 311 315 320 329 331 331 330 326 318 316 316 315 314 313 312 310
218 220 225 226 227 228 230 233 237 235 235 236 234 235 235 233 235 240 244 247 254 261 271 282 288 291 293 296 300 307 315 319 325 327 325 321 315 312 313 312 309 307 307
223 225 226 226 229 230 233 237 239 239 238 237 234 236 237 234 238 243 247 249 254 257 265 275 281 285 288 288 291 294 301 307 313 319 320 321 320 318 314 311 307 306 305
223 223 225 227 231 235 236 237 238 239 239 236 234 238 238 237 242 248 250 251 255 258 264 268 274 281 285 285 287 290 294 299 305 310 314 315 315 316 317 315 311 307 306
224 227 229 229 232 235 237 238 239 240 239 237 239 240 241 243 245 248 251 253 259 263 265 268 271 275 280 282 284 288 292 296 301 304 307 310 312 312 313 312 311 309 308
227 228 228 230 232 235 237 238 240 240 241 241 241 242 245 248 249 252 254 259 262 264 267 268 270 272 277 282 285 288 292 296 299 302 304 305 307 308 308 309 310 308 307
227 227 229 232 233 236 239 241 241 242 244 243 243 244 246 250 252 256 259 261 263 264 265 266 270 274 278 281 284 288 293 297 300 302 304 304 305 306 307 307 307 306 305
227 229 232 234 234 238 242 244 245 245 246 246 245 247 248 251 252 256 261 262 264 264 264 265 269 274 278 281 284 288 292 296 299 301 302 303 304 304 305 306 307 306 306
232 232 234 235 236 239 241 244 246 248 249 247 248 250 251 252 255 258 263 264 266 266 263 265 270 273 277 280 284 288 291 296 298 300 302 303 304 305 306 306 306 306 305
238 236 234 235 237 239 241 244 245 247 246 246 248 252 253 255 257 261 265 266 265 266 266 268 271 275 278 281 286 290 293 297 299 301 303 305 305 306 306 306 305 305 304
238 237 236 235 238 241 245 247 245 245 247 247 248 252 257 259 262 264 266 267 266 265 266 268 270 274 279 284 288 291 295 298 300 301 303 304 305 305 305 305 305 305 305
238 240 241 239 239 243 245 246 245 247 249 248 250 253 258 262 262 263 266 266 267 269 268 268 272 276 280 286 289 292 296 298 300 302 303 304 305 305 304 305 305 305 305
243 245 245 243 243 245 247 247 245 246 249 251 252 256 260 261 261 261 265 268 271 271 271 272 276 280 283 286 289 292 295 298 301 303 304 304 304 304 304 304 305 305 305
245 247 248 247 248 246 246 246 245 247 252 256 256 258 259 261 262 262 265 267 268 272 276 277 280 282 285 288 291 293 296 299 301 303 304 304 304 304 305 304 304 304 304
247 247 248 248 248 248 247 248 248 249 253 258 259 259 260 262 263 263 265 266 270 274 278 280 282 285 288 291 292 295 297 300 302 303 304 305 305 305 305 305 304 304 304
250 249 250 249 249 249 250 250 248 250 254 258 261 261 261 262 262 263 265 268 272 275 278 282 284 286 289 292 294 296 299 301 303 304 305 305 305 305 305 305 305 305 305
253 252 251 251 252 250 251 251 250 252 255 259 261 260 262 263 264 265 268 270 273 276 279 283 286 288 291 293 295 298 300 301 303 304 304 305 305 305 305 305 305 305 306
252 252 254 253 252 252 253 255 255 255 254 258 261 264 265 266 267 269 271 273 275 278 281 284 288 290 293 295 296 299 301 302 303 304 304 305 305 305 305 305 305 306 306
254 255 255 254 254 254 254 258 257 257 258 260 263 265 267 267 270 271 272 275 276 279 283 287 289 292 294 296 299 300 301 302 302 303 304 304 305 305 305 306 306 306 306
254 256 256 256 256 256 255 257 259 260 263 265 267 268 268 270 272 273 275 279 282 284 285 288 290 293 295 297 299 300 301 302 302 303 304 304 305 305 305 306 306 306 306
Height
5875 5877 5878 5880 5881 5882 5883 5885 5886 5887 5888 5889 5889 5890 5891 5891 5891 5891 5891 5891 5890 5890 5890 5889 5887 5886 5885 5884 5883 5881 5880 5878 5877 5876 5874 5873 5872 5871 5870 5869 5869 5869 5869
5874 5876 5877 5879 5880 5881 5883 5884 5885 5886 5887 5888 5888 5889 5890 5890 5890 5890 5890 5890 5890 5890 5889 5888 5887 5886 5885 5884 5883 5881 5880 5878 5877 5876 5874 5873 5872 5871 5870 5869 5868 5868 5867
5873 5874 5876 5878 5879 5880 5882 5883 5884 5885 5886 5887 5887 5888 5888 5889 5889 5889 5889 5889 5889 5889 5888 5888 5887 5886 5885 5883 5882 5881 5880 5878 5877 5876 5875 5873 5872 5870 5870 5869 5868 5867 5866
5871 5873 5875 5877 5878 5879 5880 5882 5883 5884 5884 5885 5886 5887 5887 5887 5888 5888 5888 5888 5888 5888 5888 5887 5886 5885 5884 5883 5882 5881 5879 5878 5877 5875 5874 5873 5871 5870 5869 5869 5867 5866 5866
5870 5872 5874 5875 5877 5878 5879 5880 5881 5882 5883 5884 5885 5885 5886 5886 5887 5887 5887 5887 5887 5887 5887 5886 5885 5884 5883 5882 5881 5880 5879 5877 5876 5875 5874 5872 5871 5870 5869 5868 5867 5866 5865
5869 5871 5873 5874 5876 5877 5878 5879 5880 5881 5882 5882 5883 5884 5884 5885 5885 5886 5886 5886 5886 5886 5885 5885 5884 5883 5882 5882 5881 5879 5878 5877 5876 5874 5873 5872 5871 5869 5868 5867 5866 5864 5863
5867 5869 5871 5872 5874 5875 5876 5877 5878 5879 5880 5881 5881 5882 5883 5883 5884 5884 5884 5884 5884 5884 5884 5883 5883 5882 5881 5880 5879 5879 5877 5876 5875 5873 5872 5871 5870 5868 5867 5866 5865 5863 5862
5865 5867 5869 5870 5872 5873 5874 5875 5876 5877 5878 5879 5880 5880 5881 5881 5882 5882 5883 5883 5883 5883 5882 5882 5881 5881 5880 5879 5878 5877 5876 5875 5874 5872 5871 5870 5869 5867 5866 5864 5863 5862 5860
5863 5865 5866 5868 5870 5871 5872 5873 5874 5875 5876 5877 5878 5879 5879 5880 5880 5880 5881 5881 5881 5881 5880 5880 5880 5879 5878 5877 5877 5876 5875 5874 5873 5871 5870 5869 5867 5866 5864 5862 5861 5860 5858
5860 5862 5864 5866 5867 5869 5870 5871 5872 5873 5873 5874 5875 5876 5877 5877 5878 5878 5878 5878 5879 5878 5878 5878 5878 5877 5876 5875 5875 5874 5873 5872 5871 5870 5869 5867 5865 5864 5862 5860 5858 5857 5855
5858 5860 5861 5863 5865 5866 5867 5868 5869 5870 5871 5872 5873 5874 5874 5875 5875 5875 5875 5876 5876 5876 5876 5875 5875 5875 5874 5873 5873 5872 5871 5870 5869 5868 5866 5865 5863 5861 5860 5858 5856 5854 5852
5855 5857 5858 5860 5862 5863 5864 5865 5867 5868 5869 5869 5870 5871 5872 5872 5872 5873 5873 5873 5873 5873 5873 5873 5872 5872 5871 5871 5870 5869 5868 5867 5866 5865 5863 5862 5860 5858 5856 5854 5852 5850 5848
5853 5854 5856 5857 5859 5860 5862 5863 5864 5865 5866 5866 5867 5868 5868 5869 5869 5869 5869 5870 5869 5869 5869 5869 5869 5869 5868 5868 5867 5866 5865 5864 5863 5861 5860 5858 5856 5855 5853 5851 5848 5846 5844
5850 5852 5853 5854 5856 5857 5858 5859 5860 5861 5862 5863 5864 5865 5865 5865 5866 5866 5866 5866 5865 5865 5865 5865 5866 5865 5865 5864 5864 5863 5862 5861 5859 5858 5856 5854 5852 5850 5848 5846 5844 5841 5839
5848 5849 5850 5851 5853 5854 5855 5856 5857 5858 5859 5860 5861 5861 5861 5862 5862 5862 5862 5861 5861 5861 5861 5862 5862 5861 5861 5861 5860 5859 5858 5857 5855 5853 5851 5850 5847 5845 5843 5841 5838 5835 5833
5845 5845 5847 5848 5849 5850 5851 5852 5853 5854 5855 5856 5857 5857 5858 5858 5858 5858 5857 5857 5857 5857 5857 5857 5857 5857 5857 5857 5856 5855 5854 5852 5851 5849 5847 5845 5842 5840 5837 5834 5832 5829 5826
5841 5842 5843 5844 5846 5847 5848 5849 5850 5851 5852 5853 5853 5854 5854 5854 5854 5854 5853 5853 5852 5852 5853 5853 5853 5853 5853 5852 5851 5850 5849 5847 5845 5843 5841 5839 5836 5834 5831 5828 5824 5821 5818
5838 5839 5840 5841 5842 5843 5844 5845 5846 5847 5848 5849 5849 5850 5850 5850 5850 5850 5850 5849 5849 5849 5849 5849 5849 5849 5848 5848 5847 5845 5844 5842 5840 5838 5835 5833 5830 5827 5824 5820 5817 5813 5810
5834 5835 5837 5838 5839 5840 5841 5842 5843 5844 5844 5845 5846 5846 5846 5846 5847 5846 5846 5846 5845 5845 5845 5845 5845 5844 5843 5843 5841 5840 5838 5836 5834 5831 5829 5826 5823 5819 5816 5813 5809 5805 5801
5831 5832 5833 5834 5835 5836 5837 5838 5839 5840 5840 5841 5841 5842 5842 5842 5843 5842 5842 5842 5842 5841 5841 5840 5840 5839 5838 5837 5836 5834 5832 5830 5828 5825 5821 5818 5815 5811 5807 5803 5800 5796 5791
5827 5828 5829 5830 5831 5832 5833 5834 5835 5835 5836 5837 5837 5837 5838 5838 5838 5838 5838 5838 5837 5837 5837 5836 5835 5834 5833 5831 5829 5827 5825 5823 5820 5817 5813 5810 5806 5802 5798 5794 5790 5785 5781
5823 5823 5824 5826 5827 5828 5828 5829 5830 5831 5832 5832 5833 5833 5833 5833 5833 5833 5833 5833 5833 5832 5831 5830 5829 5828 5826 5825 5823 5820 5818 5815 5812 5808 5805 5801 5797 5793 5788 5784 5780 5775 5770
5818 5819 5820 5821 5822 5823 5824 5825 5826 5826 5827 5827 5828 5828 5828 5829 5829 5829 5828 5828 5827 5827 5826 5825 5823 5822 5820 5818 5815 5813 5810 5806 5803 5799 5795 5791 5787 5783 5779 5774 5769 5764 5759
5813 5814 5815 5816 5817 5818 5819 5820 5820 5821 5822 5823 5823 5823 5823 5823 5823 5823 5823 5822 5822 5821 5819 5818 5817 5815 5813 5810 5807 5804 5801 5798 5794 5790 5786 5782 5777 5773 5768 5763 5758 5753 5747
5809 5810 5810 5811 5812 5813 5814 5814 5815 5816 5817 5817 5818 5818 5818 5818 5817 5817 5816 5816 5815 5814 5813 5811 5810 5807 5805 5802 5799 5795 5792 5788 5784 5780 5776 5771 5767 5762 5757 5752 5746 5740 5735
5803 5804 5805 5806 5807 5808 5808 5809 5810 5810 5811 5812 5812 5812 5812 5811 5811 5810 5810 5809 5808 5807 5805 5804 5802 5799 5796 5793 5790 5786 5782 5778 5774 5770 5765 5761 5756 5751 5745 5740 5734 5728 5722